METEOR-M2 2 (44387 NORAD) Tracking and Keplerian Element Data

This shows tracking and keplerian element data for the satellite.

Feedback or suggestion? Click here.




ElementValue
Catalog44387
NameMETEOR-M2 2
Epoch Orbit186
Epoch Day199.37318101
Epoch Year2019
RAAN162.0884
Inclination98.5695
Eccentricity0.0002716
Argument of Perigee63.703
Mean Anonmoly296.4428
Mean Motion14.23333019
Decay Rate-3.4E-07
L11 44387U 19038A 19199.37318101 -.00000034 00000-0 40705-5 0 9999
L22 44387 98.5695 162.0884 0002716 63.7030 296.4428 14.23333019 1863

Live tracking and technical data element details for METEOR-M2 2 (NORAD 44387). METEOR-M2 2 can be tracked NOW for your location showing map with azimuth and elevation plus other details from your city location.

Track the satellite on the map from your city or location and see movement details for azimuth, elevation, latitude, longitude, range, height, and movement on the map or in text.







IsCatalogInMostPopularTable: catalog: 44387, numindb: 10
Update: records affected: 1



GetName: 44387 METEOR-M2 2

Hit Count: updated at: Fri, 19 Jul 2019 08:49:33 GMT